Location: Goettingen
(51.5300°N, 9.9433°E)
Time: 00:43:32
(UTC+02:00)

ISS - Pass Details

Date: 25 May 2017
Orbit: 402 x 408 km, 51.6° (Epoch: 30 May)

Event Time Altitude Azimuth Distance (km) Brightness Sun altitude
Rises 04:16:53 0° 282° (WNW) 2,331 -0.3 -7.5°
Reaches altitude 10° 04:19:18 10° 265° (W) 1,465 -1.4 -7.3°
Maximum altitude 04:21:48 20° 216° (SW) 996 -2.5 -7.0°
Drops below altitude 10° 04:24:17 10° 166° (SSE) 1,456 -1.3 -6.8°
Sets 04:26:41 0° 149° (SSE) 2,310 -0.1 -6.5°
